Terminal Aerodrome Forecast
Issued by NWS

Home | Current Version | Previous Version | Text Only | Print | Product List | Glossary On
Versions: 1 2 3 4 5 6 7 8 9 10 11 12 13 14 15 16 17 18 19 20 21
244
FTUS43 KGRB 231329 AAA
TAFAUW
TAF AMD
KAUW 231329Z 2313/2412 30007KT P6SM SCT007
     FM231500 32009G16KT P6SM SCT050
     FM240000 34005KT P6SM SCT100
     FM240500 02003KT P6SM VCSH BKN080=

USA.gov is the U.S. government's official web portal to all federal, state and local government web resources and services.